Regional Weather Roundup
Issued by NWS

Home | Current Version | Previous Version | Text Only | Print | Product List | Glossary On
Versions: 1 2 3 4 5 6 7 8 9 10 11 12 13 14 15 16 17 18 19 20 21 22 23 24 25 26 27 28 29 30 31 32 33 34 35 36 37 38 39 40 41 42 43 44 45 46 47 48 49 50
000
ASUS43 KLMK 070910
RWRKY
KENTUCKY REGIONAL WEATHER ROUNDUP
NATIONAL WEATHER SERVICE LOUISVILLE KY
500 AM EDT TUE JUL 07 2015

NOTE "FAIR" INDICATES FEW OR NO CLOUDS BELOW 12,000 FEET
WITH NO SIGNIFICANT WEATHER AND/OR OBSTRUCTIONS TO VISIBILITY.

KYZ001>023-026-027-061>063-070>075-071000-
WESTERN AND SOUTH CENTRAL KENTUCKY

CITY           SKY/WX    TMP DP  RH WIND       PRES   REMARKS
PADUCAH        HVY RAIN  74  71  91 S9        29.95F FOG
HENDERSON      PTCLDY    75  70  83 S6        29.95S
OWENSBORO      PTCLDY    76  74  93 S10       29.98F
HOPKINSVILLE   PTCLDY    75  73  92 S9        30.01F
BOWLING GREEN  MOCLDY    76  71  85 SW9       30.04S
GLASGOW        CLEAR     73  72  95 SW3       30.04F
$$

KYZ024-025-028>034-038-045-046-053-071000-
NORTH CENTRAL KENTUCKY

CITY           SKY/WX    TMP DP  RH WIND       PRES   REMARKS
LOUISVILLE/SDF CLOUDY    78  72  81 SW9       29.99S
LOUISVILLE/LOU MOCLDY    77  72  84 SW6       30.00S
FORT KNOX      PTCLDY    73  71  92 S6        30.00S
$$

KYZ035>037-039>044-047>052-055>060-089>105-071000-
NORTHEAST KENTUCKY

CITY           SKY/WX    TMP DP  RH WIND       PRES   REMARKS
LEXINGTON      PTCLDY    73  69  87 SW9       30.04S
COVINGTON      CLOUDY    73  69  87 S8        29.99F
FRANKFORT      MOCLDY    74  69  85 SW9       30.01F
$$

KYZ054-064>069-076>088-106>120-071000-
SOUTHEAST KENTUCKY

CITY           SKY/WX    TMP DP  RH WIND       PRES   REMARKS
JACKSON        CLEAR     68  66  93 CALM      30.09S FOG
LONDON         CLEAR     68  64  87 CALM      30.10R FOG
SOMERSET       PTCLDY    68  68 100 CALM      30.09S
MIDDLESBORO    FOG       66  66 100 CALM      30.13R VSB<1/4
MONTICELLO     SUNNY     72  72 100 SW3       30.11R
$$



USA.gov is the U.S. government's official web portal to all federal, state and local government web resources and services.